Regional Weather Roundup
Issued by NWS

Home | Current Version | Previous Version | Graphics & Text | Print | Product List | Glossary Off
Versions: 1 2 3 4 5 6 7 8 9 10 11 12 13 14 15 16 17 18 19 20 21 22 23 24 25 26 27 28 29 30 31 32 33 34 35 36 37 38 39 40 41 42 43 44 45 46 47 48 49 50

000
ASUS43 KDTX 270501
RWRMI
MICHIGAN HOURLY REGIONAL WEATHER ROUNDUP
NATIONAL WEATHER SERVICE DETROIT/PONTIAC MI
100 AM EDT WED MAY 27 2015

NOTE: "FAIR" INDICATES FEW OR NO CLOUDS BELOW 12,000 FEET WITH NO
SIGNIFICANT WEATHER AND/OR OBSTRUCTION TO VISIBILITY.

MIZ047>049-052>055-059>063-066>070-074>076-081>083-270600-
SOUTHEAST LOWER MICHIGAN

CITY           SKY/WX    TMP DP  RH WIND       PRES   REMARKS
ADRIAN         CLOUDY    69  65  86 SW12      29.93S
ALMA           PTCLDY    66  63  91 S7        29.85R
ANN ARBOR      CLOUDY    68  65  90 S8        29.91S
BAD AXE        MOCLDY    68  64  85 S13G18    29.85S
CARO           CLOUDY    68  64  85 S10       29.85S
DETROIT        CLOUDY    71  66  84 S13       29.92S
FLINT          MOCLDY    71  65  81 S9        29.88S
GROSSE ILE     CLOUDY    68  64  88 S9        29.91F
HILLSDALE      MOCLDY    68  63  83 SW8       29.94S
HOWELL         MOCLDY    69  66  90 S12G17    29.90R

CITY           SKY/WX    TMP DP  RH WIND       PRES   REMARKS
JACKSON        PTCLDY    67  60  78 SW13      29.91R
LAMBERTVILLE   CLOUDY    72  64  78 SW9       29.93F
LANSING        CLEAR     67  61  81 SW15      29.88R
LAPEER         CLOUDY    68  65  88 S10       29.89R
MASON          PTCLDY    65  61  86 SW6       29.90R
MONROE         CLOUDY    72  66  83 SW9       29.91F
MT. CLEMENS    CLOUDY    68  66  91 S13       29.89F
PONTIAC        MOCLDY    68  65  90 S10       29.90R
PORT HOPE        N/A    N/A N/A N/A S7        29.82R
PORT HURON     MOCLDY    66  64  94 S8        29.91F
TRI CITIES     PTCLDY    70  62  76 SW10G21   29.83S
MIDLAND        FAIR      67  62  86 S7        29.82S
TROY           MOCLDY    69  67  92 SW8       29.92F
SAGINAW HB     PTCLDY    68  63  83 S15G21    29.84R
$$
MIZ043>046-050>051-056>058-064>065-071>073-077>080-270600-
SOUTHWEST LOWER MICHIGAN

CITY           SKY/WX    TMP DP  RH WIND       PRES   REMARKS
BATTLE CREEK   CLEAR     67  60  78 SW14      29.91R
BENTON HARBOR  PTCLDY    66  61  84 S9        29.87F
BIG RAPIDS     MOCLDY    65  59  82 SW14G21   29.80S
COLDWATER      PTCLDY    65  58  78 SW7       29.93S
FREMONT        FAIR      63  59  88 SW9       29.82R
HOLLAND        PTCLDY    68  60  75 SW18G25   29.86R
GRAND RAPIDS   PTCLDY    67  61  81 SW10      29.85R
IONIA          MOCLDY    69  61  76 SW12G21   29.86R
KALAMAZOO      CLEAR     67  60  78 SW9       29.90R
LUDINGTON      CLEAR     62  56  79 SW24G32   29.76S
MARSHALL       CLEAR     67  60  77 SW9       29.91R
MOUNT PLEASANT CLEAR     67  62  84 SW10G20   29.82R
MUSKEGON       PTCLDY    62  57  83 SW18G26   29.83R
SOUTH HAVEN    MOCLDY    68  60  75 S7        29.88R
$$
MIZ016>042-270600-
NORTHERN LOWER MICHIGAN

CITY           SKY/WX    TMP DP  RH WIND       PRES   REMARKS
ALPENA         PTCLDY    68  64  87 SW8       29.75F
BEAVER ISLAND  PTCLDY    62  61  96 S3        29.68F
BELLAIRE       CLOUDY    65  62  87 S7        29.72S
CADILLAC       PTCLDY    63  60  89 S15       29.77S
CHARLEVOIX     MOCLDY    66  63  91 S8        29.73S
FRANKFORT      CLOUDY    63  53  67 SW17G31   29.72S
GAYLORD        CLOUDY    65  64  97 S13G20    29.75S
HARBOR SPRINGS PTCLDY    63  62  96 S5        29.70F
HOUGHTON LAKE  MOCLDY    65  62  90 S14       29.79R
MANISTEE       PTCLDY    64  55  72 SW12G21   29.75R
OSCODA         PTCLDY    65  64  94 S9        29.79S
PELLSTON       PTCLDY    64  63  96 S5        29.70F
ROGERS CITY    PTCLDY    67  65  93 S7        29.74S
TRAVERSE CITY  CLEAR     67  61  81 VRB6      29.69F
$$
MIZ007>008-015-270600-
EASTERN UPPER MICHIGAN

CITY           SKY/WX    TMP DP  RH WIND       PRES   REMARKS
KINROSS        CLOUDY    63  63 100 SE8       29.69F
MACKINAC ISLAN FOG       61  61 100 S7        29.69F VSB 3/4
NEWBERRY       CLOUDY    62  61  98 S5        29.67F
S. S. MARIE    CLOUDY    60  59  96 E8        29.69F FOG
$$
MIZ004>006-011>014-085-270600-
CENTRAL UPPER MICHIGAN

CITY           SKY/WX    TMP DP  RH WIND       PRES   REMARKS
MANISTIQUE     CLOUDY    54  53  97 S7        29.67F FOG
ESCANABA       CLOUDY    52  48  87 E3        29.64F
MENOMINEE      CLOUDY    54  52  94 E6        29.61F
SAWYER-GWINN   CLOUDY    52  50  95 NE9       29.66F
$$
MIZ001>003-009>011-084-270600-
WESTERN UPPER MICHIGAN

CITY           SKY/WX    TMP DP  RH WIND       PRES   REMARKS
IRON MOUNTAIN  LGT RAIN  57  55  93 NE9       29.62F FOG
HOUGHTON       LGT RAIN  52  51  97 N5        29.70F
COPPER HARBOR    N/A     39  37  92 CALM      29.72F
IRONWOOD       CLOUDY    46  46 100 W6        29.73S VSB 1/2
$$

ABBREVIATIONS USED IN REMARKS
   TC - TEMPERATURE IN CELSIUS
  WCI - WIND CHILL INDEX
   HX - HEAT INDEX
  VSB - VISIBILITY



USA.gov is the U.S. government's official web portal to all federal, state and local government web resources and services.